This is the latest recevied weather packets stored in our database for station/object KE8WMS. If no packets are shown the sender has not sent any weather packets the latest 10 day(s).
| Time | Temp. | Humidity | Pressure | Rain* | Wind** | Luminosity | Snow |
|---|---|---|---|---|---|---|---|
| 1777046632 | 21.67° C | 62% | 1004.8 hPa | 0 mm | - | 289 W/m² | - |
| 1777046327 | 22.22° C | 61% | 1004.9 hPa | 0 mm | - | 369 W/m² | - |
| 1777046023 | 21.67° C | 60% | 1004.9 hPa | 0 mm | - | 750 W/m² | - |
| 1777045720 | 22.22° C | 60% | 1005.2 hPa | 0 mm | - | 469 W/m² | - |
| 1777045416 | 22.22° C | 59% | 1005 hPa | 0 mm | - | 692 W/m² | - |
| 1777045111 | 24.44° C | 56% | 1004.9 hPa | 0 mm | - | 696 W/m² | - |
| 1777044807 | 26.11° C | 54% | 1004.6 hPa | 0 mm | - | 639 W/m² | - |
| 1777044504 | 26.11° C | 54% | 1004.8 hPa | 0 mm | - | 627 W/m² | - |
| 1777044200 | 26.11° C | 54% | 1004.8 hPa | 0 mm | - | 615 W/m² | - |
| 1777043896 | 26.11° C | 57% | 1004.7 hPa | 0 mm | - | 620 W/m² | - |
| 1777043593 | 26.67° C | 55% | 1004.9 hPa | 0 mm | - | 614 W/m² | - |
| 1777043289 | 26.11° C | 54% | 1004.7 hPa | 0 mm | - | 596 W/m² | - |
| 1777042984 | 26.11° C | 55% | 1004.6 hPa | 0 mm | - | 582 W/m² | - |
| 1777042681 | 25.56° C | 54% | 1004.6 hPa | 0 mm | - | 577 W/m² | - |
| 1777042376 | 25.56° C | 56% | 1004.3 hPa | 0 mm | - | 570 W/m² | - |
| 1777042071 | 26.11° C | 54% | 1004.7 hPa | 0 mm | - | 561 W/m² | - |
| 1777041769 | 26.11° C | 55% | 1004.8 hPa | 0 mm | - | 555 W/m² | - |
| 1777041464 | 25.56° C | 57% | 1004.7 hPa | 0 mm | - | 541 W/m² | - |
| 1777041162 | 25.56° C | 52% | 1004.8 hPa | 0 mm | - | 477 W/m² | - |
| 1777040858 | 25° C | 55% | 1004.8 hPa | 0 mm | - | 465 W/m² | - |
| 1777040553 | 25° C | 55% | 1005 hPa | 0 mm | - | 490 W/m² | - |
| 1777040248 | 25° C | 55% | 1005 hPa | 0 mm | - | 489 W/m² | - |
| 1777039943 | 24.44° C | 55% | 1005.1 hPa | 0 mm | - | 477 W/m² | - |
| 1777039639 | 23.89° C | 56% | 1005.2 hPa | 0 mm | - | 463 W/m² | - |
| 1777039339 | 23.89° C | 58% | 1005.3 hPa | 0 mm | - | 452 W/m² | - |
* Rain latest hour (hover to see other rain measurements)
** Current wind speed in m/s (hover to see current wind gust speed)